カタログに戻る

POLYITAN 1

運用中科学PO
NORAD 40042·PAYLOAD·🇺🇦 Ukraine

打ち上げ Jun 19, 2014 から Dombarovsky

Loading…

次のパス (今後24時間)

TLE

最新Source: Space-Track

元期: Sep 14, 2026, 01:12 UTC

1 40042U 14033AJ  26257.05037827  .00016110  00000-0  46030-3 0  9990
2 40042  98.0887 291.9027 0006482 182.1868 177.9346 15.36081254667221

AllMySatでPOLYITAN 1をリアルタイム追跡

Download on the App Store